Weather History for Brunswick, GA

Change the Weather History Date:

Sunday, July 22, 2012

  Actual Average Record
Temperature  
Mean Temperature 88 °F -  
Max Temperature 95 °F 92 °F 102 °F (1942)
Min Temperature 80 °F 73 °F 65 °F (1984)
Cooling Degree Days 22    
Growing Degree Days 38 (Base 50)    
Moisture  
Dew Point 77 °F    
Average Humidity 73    
Maximum Humidity 94    
Minimum Humidity 47    
Precipitation  
Precipitation 0.00 in - - ()
Sea Level Pressure  
Sea Level Pressure 30.16 in    
Wind  
Wind Speed 5 mph (SSE)    
Max Wind Speed 12 mph    
Max Gust Speed 16 mph    
Visibility 10 miles    
Events      
Averages and records for this station are not official NWS values.
T = Trace of Precipitation, MM = Missing Value Source: NWS Daily Summary

Daily Weather History Graph

Daily Weather History Graph

Search for Another Location

Airport:

Trip Planner

Search our weather history database for the weather conditions in past years. The results will help you decide how hot, cold, wet, or windy it might be!

Date:

Astronomy

Jul. 22, 2012 Rise Set
Actual Time 6:36 AM EDT 8:27 PM EDT
Civil Twilight 6:09 AM EDT 8:54 PM EDT
Nautical Twilight 5:37 AM EDT 9:27 PM EDT
Astronomical Twilight 5:02 AM EDT 10:01 PM EDT
Moon 10:02 AM EDT (7/22) 10:30 PM EDT (7/22)
Length of Visible Light 14h 44m
Length of Day
13h 51m
Waxing Crescent, 13% of the Moon is Illuminated
Jul 22
Waxing Crescent
Jul 26
First Quarter
Aug 1
Full
Aug 9
Last Quarter
Aug 17
New

Hourly Weather History & Observations

Time (EDT) Temp. Heat Index Dew Point Humidity Pressure Visibility Wind Dir Wind Speed Gust Speed Precip Events Conditions
12:15 AM 86.0 °F 99.3 °F 78.8 °F 79% 30.15 in 10.0 mi South 5.8 mph - N/A   Clear
12:35 AM 86.0 °F 99.3 °F 78.8 °F 79% 30.14 in 10.0 mi South 6.9 mph - N/A   Clear
12:55 AM 86.0 °F 99.3 °F 78.8 °F 79% 30.14 in 10.0 mi South 5.8 mph - N/A   Clear
1:15 AM 86.0 °F 101.9 °F 80.6 °F 84% 30.13 in 10.0 mi South 3.5 mph - N/A   Clear
1:35 AM 86.0 °F 101.9 °F 80.6 °F 84% 30.12 in 10.0 mi SSE 4.6 mph - N/A   Clear
1:55 AM 86.0 °F 101.9 °F 80.6 °F 84% 30.12 in 10.0 mi South 5.8 mph - N/A   Clear
2:15 AM 84.2 °F 96.1 °F 78.8 °F 84% 30.11 in 10.0 mi SSE 4.6 mph - N/A   Clear
2:35 AM 84.2 °F 96.1 °F 78.8 °F 84% 30.11 in 10.0 mi South 4.6 mph - N/A   Clear
2:55 AM 84.2 °F 96.1 °F 78.8 °F 84% 30.11 in 10.0 mi SSE 5.8 mph - N/A   Clear
3:15 AM 84.2 °F 96.1 °F 78.8 °F 84% 30.11 in 10.0 mi SSE 6.9 mph - N/A   Clear
3:35 AM 84.2 °F 96.1 °F 78.8 °F 84% 30.11 in 10.0 mi South 5.8 mph - N/A   Clear
3:55 AM 84.2 °F 96.1 °F 78.8 °F 84% 30.12 in 10.0 mi SSW 3.5 mph - N/A   Clear
4:15 AM 82.4 °F 92.4 °F 78.8 °F 89% 30.12 in 10.0 mi Calm Calm - N/A   Clear
4:35 AM 82.4 °F 92.4 °F 78.8 °F 89% 30.13 in 10.0 mi SSW 4.6 mph - N/A   Clear
4:55 AM 82.4 °F 92.4 °F 78.8 °F 89% 30.13 in 10.0 mi SSW 3.5 mph - N/A   Clear
5:15 AM 80.6 °F 87.1 °F 77.0 °F 89% 30.13 in 10.0 mi Calm Calm - N/A   Clear
5:55 AM 82.4 °F 92.4 °F 78.8 °F 89% 30.13 in 10.0 mi SSE 4.6 mph - N/A   Clear
6:15 AM 82.4 °F 92.4 °F 78.8 °F 89% 30.14 in 10.0 mi South 3.5 mph - N/A   Clear
6:35 AM 82.4 °F 92.4 °F 78.8 °F 89% 30.14 in 10.0 mi South 3.5 mph - N/A   Clear
6:55 AM 82.4 °F 92.4 °F 78.8 °F 89% 30.15 in 10.0 mi South 3.5 mph - N/A   Clear
7:15 AM 82.4 °F 92.4 °F 78.8 °F 89% 30.16 in 10.0 mi SSE 3.5 mph - N/A   Clear
7:35 AM 82.4 °F 92.4 °F 78.8 °F 89% 30.16 in 10.0 mi South 4.6 mph - N/A   Clear
7:55 AM 82.4 °F 92.4 °F 78.8 °F 89% 30.17 in 10.0 mi South 3.5 mph - N/A   Clear
8:15 AM 84.2 °F 96.1 °F 78.8 °F 84% 30.17 in 10.0 mi South 4.6 mph - N/A   Clear
8:35 AM 86.0 °F 99.3 °F 78.8 °F 79% 30.18 in 10.0 mi South 6.9 mph - N/A   Clear
8:55 AM 87.8 °F 102.5 °F 78.8 °F 75% 30.17 in 10.0 mi South 8.1 mph - N/A   Clear
9:15 AM 87.8 °F 99.7 °F 77.0 °F 70% 30.18 in 10.0 mi South 5.8 mph - N/A   Clear
9:35 AM 87.8 °F 99.7 °F 77.0 °F 70% 30.18 in 10.0 mi South 4.6 mph - N/A   Clear
9:55 AM 87.8 °F 99.7 °F 77.0 °F 70% 30.18 in 10.0 mi SW 3.5 mph - N/A   Clear
10:15 AM 87.8 °F 99.7 °F 77.0 °F 70% 30.18 in 10.0 mi Calm Calm - N/A   Clear
10:35 AM 89.6 °F 102.2 °F 77.0 °F 66% 30.19 in 10.0 mi WSW 3.5 mph - N/A   Clear
11:15 AM 89.6 °F 102.2 °F 77.0 °F 66% 30.19 in 10.0 mi SE 4.6 mph - N/A   Clear
11:35 AM 89.6 °F 102.2 °F 77.0 °F 66% 30.19 in 10.0 mi SSE 3.5 mph - N/A   Clear
11:55 AM 91.4 °F 102.5 °F 75.2 °F 59% 30.20 in 10.0 mi Calm Calm - N/A   Clear
12:15 PM 91.4 °F 102.5 °F 75.2 °F 59% 30.20 in 10.0 mi Calm Calm - N/A   Clear
12:35 PM 91.4 °F 100.1 °F 73.4 °F 55% 30.19 in 10.0 mi SSE 3.5 mph - N/A   Clear
1:15 PM 93.2 °F 107.2 °F 77.0 °F 59% 30.19 in 10.0 mi ESE 6.9 mph - N/A   Clear
1:55 PM 95.0 °F 109.7 °F 77.0 °F 56% 30.19 in 10.0 mi ESE 9.2 mph - N/A   Scattered Clouds
2:15 PM 93.2 °F 107.2 °F 77.0 °F 59% 30.19 in 10.0 mi South 8.1 mph - N/A   Clear
2:35 PM 95.0 °F 104.5 °F 73.4 °F 49% 30.19 in 10.0 mi SE 9.2 mph - N/A   Clear
3:15 PM 95.0 °F 103.2 °F 71.6 °F 47% 30.18 in 10.0 mi ESE 9.2 mph 16.1 mph N/A   Clear
3:35 PM 95.0 °F 103.2 °F 71.6 °F 47% 30.17 in 10.0 mi SE 9.2 mph - N/A   Clear
3:55 PM 95.0 °F 103.2 °F 71.6 °F 47% 30.17 in 10.0 mi SE 9.2 mph - N/A   Clear
4:15 PM 95.0 °F 103.2 °F 71.6 °F 47% 30.16 in 10.0 mi SE 8.1 mph - N/A   Clear
4:35 PM 95.0 °F 104.5 °F 73.4 °F 49% 30.17 in 10.0 mi SE 6.9 mph - N/A   Clear
4:55 PM 93.2 °F 102.4 °F 73.4 °F 52% 30.17 in 10.0 mi SE 11.5 mph - N/A   Clear
5:15 PM 93.2 °F 102.4 °F 73.4 °F 52% 30.16 in 10.0 mi SE 8.1 mph - N/A   Clear
5:35 PM 91.4 °F 102.5 °F 75.2 °F 59% 30.16 in 10.0 mi SE 8.1 mph - N/A   Clear
5:55 PM 91.4 °F 105.1 °F 77.0 °F 63% 30.15 in 10.0 mi SE 9.2 mph - N/A   Clear
6:15 PM 91.4 °F 105.1 °F 77.0 °F 63% 30.16 in 10.0 mi ESE 10.4 mph - N/A   Clear
6:35 PM 91.4 °F 105.1 °F 77.0 °F 63% 30.16 in 10.0 mi SE 11.5 mph - N/A   Clear
6:55 PM 89.6 °F 104.7 °F 78.8 °F 70% 30.17 in 10.0 mi SE 10.4 mph - N/A   Scattered Clouds
7:15 PM 89.6 °F 104.7 °F 78.8 °F 70% 30.17 in 10.0 mi SE 11.5 mph - N/A   Scattered Clouds
7:35 PM 89.6 °F 104.7 °F 78.8 °F 70% 30.17 in 10.0 mi SE 11.5 mph 16.1 mph N/A   Mostly Cloudy
7:55 PM 87.8 °F 102.5 °F 78.8 °F 75% 30.17 in 10.0 mi SE 8.1 mph - N/A   Mostly Cloudy
8:15 PM 87.8 °F 102.5 °F 78.8 °F 75% 30.17 in 10.0 mi South 8.1 mph - N/A   Mostly Cloudy
8:35 PM 87.8 °F 99.7 °F 77.0 °F 70% 30.17 in 10.0 mi SSE 5.8 mph - N/A   Scattered Clouds
8:55 PM 87.8 °F 102.5 °F 78.8 °F 75% 30.17 in 10.0 mi South 4.6 mph - N/A   Clear
9:15 PM 86.0 °F 99.3 °F 78.8 °F 79% 30.16 in 10.0 mi Calm Calm - N/A   Clear
9:35 PM 86.0 °F 99.3 °F 78.8 °F 79% 30.18 in 10.0 mi SE 3.5 mph - N/A   Clear
9:55 PM 86.0 °F 99.3 °F 78.8 °F 79% 30.19 in 10.0 mi SE 3.5 mph - N/A   Clear
10:15 PM 80.6 °F 87.1 °F 77.0 °F 89% 30.19 in 10.0 mi Calm Calm - N/A   Clear
10:35 PM 80.6 °F 88.1 °F 78.8 °F 94% 30.21 in 10.0 mi Calm Calm - N/A   Clear
10:55 PM 86.0 °F 99.3 °F 78.8 °F 79% 30.21 in 10.0 mi SE 5.8 mph - N/A   Clear
11:15 PM 86.0 °F 99.3 °F 78.8 °F 79% 30.20 in 10.0 mi SE 5.8 mph - N/A   Scattered Clouds
11:35 PM 86.0 °F 99.3 °F 78.8 °F 79% 30.20 in 10.0 mi SE 4.6 mph - N/A   Clear
11:55 PM 86.0 °F 99.3 °F 78.8 °F 79% 30.20 in 10.0 mi SSE 5.8 mph - N/A   Clear